Theta_e
342 341 339 337 342 347 352 355 356 356 354 356 355 354 355 356 356 358 358 356 355 352 351 350 351 351 350 351 353 354 353 357
346 344 342 340 341 345 349 352 354 355 355 355 355 353 354 353 356 358 356 353 352 350 348 347 349 349 350 354 353 356 355 346
348 349 349 344 342 345 348 350 351 352 352 354 353 353 352 353 353 354 354 351 349 347 349 351 352 353 353 352 355 351 335 333
332 333 340 348 345 344 347 349 351 351 350 351 351 354 353 353 352 353 352 351 349 347 349 352 352 354 354 351 347 335 330 330
328 331 338 340 348 348 348 349 350 349 348 349 350 351 350 352 352 351 350 353 354 352 353 352 351 352 345 340 333 333 330 327
335 339 343 347 346 348 348 346 348 350 350 351 352 353 353 352 353 353 352 353 353 354 351 343 343 346 340 337 335 330 329 325
332 337 338 343 349 350 350 352 351 352 352 353 355 356 356 356 355 354 353 353 352 350 344 338 337 337 336 333 333 333 326 323
326 329 330 332 334 337 339 340 343 352 353 352 351 351 348 349 351 352 350 351 343 341 338 336 333 330 328 327 328 327 325 323
322 321 323 324 325 326 329 330 335 339 343 345 348 346 344 345 345 345 346 346 339 339 336 334 331 328 328 329 326 326 323 324
313 314 314 316 317 318 320 324 328 330 336 338 341 341 340 340 342 342 341 340 338 335 334 331 330 327 328 327 328 322 323 324
309 309 309 310 310 313 315 317 319 322 327 331 336 339 338 336 335 336 337 336 335 335 332 330 330 329 325 328 327 325 319 322
306 307 307 307 308 310 311 313 314 316 320 321 324 326 327 332 332 334 335 335 334 334 332 331 332 329 329 327 327 326 324 321
303 304 305 307 308 308 310 311 311 312 314 316 315 316 319 323 326 328 332 333 333 332 332 331 331 329 330 329 328 326 323 321
304 305 306 306 307 306 307 308 309 310 310 311 311 311 313 314 317 319 322 326 328 330 331 331 331 330 328 328 328 327 325 323
302 302 303 304 304 305 305 305 306 308 308 308 308 309 310 310 311 311 313 318 322 326 328 328 328 329 328 328 326 326 325 322
300 301 301 302 302 303 303 304 304 305 306 306 307 307 307 307 308 307 308 310 314 319 323 326 327 327 326 326 324 324 324 322
300 301 300 301 302 302 303 303 304 304 304 305 305 305 306 305 306 306 306 308 309 312 315 318 323 325 323 321 319 319 319 320
300 300 301 302 302 302 303 303 303 303 303 303 303 303 303 304 304 304 305 307 309 310 311 313 316 320 320 318 318 317 316 316
299 300 300 301 302 302 302 302 301 300 301 301 301 301 302 302 301 302 303 306 307 307 308 309 311 315 318 318 318 315 313 313
299 299 300 300 300 300 300 299 299 300 301 301 301 301 302 301 300 300 304 304 305 307 308 308 309 311 315 316 316 314 310 312
Wind_Speed
9 10 11 12 10 8 9 7 7 6 4 5 3 4 4 4 6 7 5 4 3 4 4 4 5 6 5 6 5 4 3 2
7 7 3 6 12 10 8 8 7 6 4 4 4 4 4 4 6 6 5 4 4 4 4 4 4 3 4 4 4 2 1 2
10 9 6 10 12 10 12 11 8 6 6 2 4 5 4 4 4 5 3 4 3 4 4 4 4 4 4 4 4 1 2 2
7 5 9 9 11 11 9 11 9 8 6 6 4 3 3 4 4 3 5 4 3 4 4 5 5 4 3 1 2 2 2 1
13 10 7 8 7 11 12 12 7 5 3 5 4 4 4 3 4 4 4 4 4 4 4 3 2 1 4 3 3 2 2 2
16 13 12 11 1 7 8 6 6 5 5 5 4 5 4 2 3 4 5 5 4 2 2 1 1 3 4 3 2 2 2 3
18 17 15 14 11 9 7 4 4 5 5 2 4 1 1 1 3 3 5 5 5 4 3 3 5 5 4 4 3 1 3 4
16 17 17 19 18 16 14 11 11 5 2 4 4 4 2 2 1 2 4 3 4 5 5 5 5 5 5 5 5 3 2 4
19 18 19 20 19 17 17 13 13 7 4 3 2 2 2 3 3 3 1 1 4 6 6 7 6 6 6 7 6 4 3 4
19 20 20 21 20 18 18 19 16 13 9 6 4 4 3 3 2 2 1 4 5 5 6 6 6 7 8 8 8 5 4 5
18 20 21 20 21 19 19 19 18 17 16 9 6 3 2 3 4 2 2 2 4 5 6 6 8 6 6 6 6 6 4 4
18 18 20 19 17 17 18 18 18 16 18 13 13 9 8 6 7 6 5 5 5 7 8 8 8 6 6 7 6 6 6 7
17 17 17 18 18 17 16 16 16 17 16 15 12 13 10 9 8 11 9 8 7 7 8 8 8 8 8 8 7 7 6 6
15 15 15 16 16 16 16 17 16 16 16 15 15 14 13 11 12 10 8 8 6 7 10 10 9 9 9 7 7 8 7 7
14 16 15 15 16 16 15 17 15 16 15 15 15 14 13 12 11 9 12 9 9 10 10 10 10 10 10 8 8 9 8 7
12 14 13 14 15 15 15 15 14 14 15 15 14 15 10 10 11 11 10 10 10 13 12 12 13 12 11 9 8 7 7 7
13 14 12 13 13 14 14 15 15 15 15 14 14 13 13 13 16 14 11 13 11 13 13 13 12 11 9 8 6 4 5 6
12 11 12 11 11 12 12 13 13 14 15 13 12 14 13 13 13 14 15 14 14 14 13 13 12 10 7 6 4 5 6 4
13 12 12 11 11 11 12 14 14 14 13 13 14 13 14 13 12 13 13 13 13 13 13 13 13 9 8 7 7 5 6 4
11 12 13 12 14 15 15 14 15 15 15 15 15 15 15 15 14 15 13 13 13 13 13 12 11 10 9 8 6 5 3 5
Wind_Direction
204 184 198 185 188 173 176 172 171 183 168 170 189 192 199 214 214 208 205 213 213 233 239 227 226 209 242 222 226 248 270 246
237 233 231 194 190 181 167 180 171 180 170 184 188 212 192 217 226 211 205 210 216 241 244 240 233 235 268 258 247 246 206 111
238 241 226 196 205 183 182 182 171 177 173 180 227 229 215 246 232 236 232 236 244 252 250 255 257 247 237 251 279 305 93 95
307 289 274 212 195 191 185 200 177 177 187 193 227 256 268 274 268 266 264 268 261 262 269 271 265 261 250 306 42 29 42 42
14 6 355 262 211 184 190 191 186 186 196 228 255 246 237 262 293 297 277 272 271 279 296 311 339 303 86 89 93 46 331 307
18 13 30 39 291 191 169 190 166 188 199 221 227 239 226 250 263 257 257 251 241 243 233 68 123 132 129 125 150 141 285 308
31 32 37 44 53 68 79 107 139 187 219 221 227 259 286 263 257 246 248 237 209 194 152 150 144 137 136 130 96 341 324 324
46 45 45 48 44 45 43 44 18 27 47 83 76 91 62 19 337 268 254 239 173 163 154 153 149 136 133 123 124 104 20 342
52 43 46 49 41 40 35 28 27 21 358 0 38 48 30 56 42 20 10 216 172 169 169 166 161 142 133 150 144 136 85 12
43 46 42 39 42 33 30 30 27 22 17 13 2 13 34 19 29 76 44 175 176 169 178 175 169 152 156 161 176 172 184 161
48 45 45 43 40 39 36 34 31 28 16 16 1 0 22 4 9 1 337 254 207 193 194 197 184 197 180 180 182 191 196 187
49 41 38 32 30 32 31 28 25 23 23 25 25 15 0 359 326 321 287 259 226 219 209 206 205 213 213 196 204 241 241 254
45 34 29 28 25 23 22 20 23 19 19 19 14 14 359 346 346 331 325 307 286 254 242 242 237 228 222 228 213 223 228 265
37 30 25 21 19 16 12 9 9 9 9 8 7 2 352 347 349 339 333 316 303 283 277 264 255 243 234 241 241 234 232 242
23 19 15 12 11 8 4 4 359 358 356 355 353 346 338 330 330 328 325 323 322 317 308 278 267 262 265 255 236 238 231 237
23 14 8 3 4 2 356 352 348 351 348 343 343 337 329 321 325 320 309 311 314 320 313 301 286 271 265 261 256 256 258 254
11 6 4 359 354 357 351 348 346 346 343 337 330 332 326 320 316 313 310 308 309 306 310 313 307 293 275 271 268 282 282 272
2 359 358 353 351 349 349 346 340 338 333 326 323 317 315 313 313 313 310 306 307 306 304 305 312 309 284 269 259 266 276 294
352 351 352 349 351 350 349 342 337 332 326 328 322 320 318 316 314 313 306 305 307 307 307 307 301 298 289 269 264 260 261 251
346 346 348 352 353 348 342 337 335 334 332 328 325 326 328 325 321 317 313 310 311 302 301 296 289 287 302 290 289 259 211 249